IRIDE-MS1-EAG2-9

导读

IRIDE-MS1-EAG2-9(NORAD编号68449)是意大利IRIDE国家地球观测计划Eaglet II星座中的一颗卫星,由意大利航天局支持、欧洲航天局协调,经费来自意大利国家复苏与韧性计划。该卫星搭载多光谱高分辨率光学载荷与自动识别系统,由OHB意大利公司主承包研制,于2025年通过SpaceX猎鹰9号火箭以搭车方式发射,旨在为意大利公共及民防部门提供遥感数据,服务环境监测、应急响应与安全保障等领域,是IRIDE六大星座部署中的重要组成部分。

Basic Information
目录编号:
68449
目录名称:
IRIDE-MS1-EAG2-9
国际标识:
2026-067AK
轨道中心:
EARTH
卫星名称:
IRIDE-MS1-EAG2-9
卫星全名:
IRIDE-MS1-EAG2-9
卫星状态:
在轨 (已飞行159 天)
发射日期:
2026-03-30 UTC
国别 :
意大利 (IT)
星等 :
--
Orbit Information
数据来源 国际轨道数据
星历时间: 2026-09-05T18:16:14+0800
9小时前
查看轨道信息
半长轴: 6887.215km
偏心率: 0.0005311
轨道倾角: 97.458°
近地点辐角 129.465°
升交点赤经 205.671°
平近点角 230.706°
近地点: 505.42km
远地点: 512.736km
周期: 94.804分钟
每日圈数: 15.189286
Detailed Information
使用方式:
暂无
2D Orbit Map
3D Orbit Map
Orbit Altitude Analysis Chart
Orbit Inclination Analysis Chart
Orbit Comprehensive Analysis Chart
View Comprehensive Chart
Conjunction Data List
Event ID Objects TCA Miss Dist (km) Collision Risk Probability Collision Risk Index (CRI) Action
CDM_260907-200600-002206-844923
2026-09-07T
20:06:14+0000
1.222 km
极远距离
1.320805E-5 中风险 0.57
CDM_260905-212106-844906-883423
HJS-9D (68834)
2026-09-05T
21:21:36+0000
1.327 km
极远距离
1.014088E-5 中风险 0.55
CDM_260905-225405-341206-844921
2026-09-05T
22:54:15+0000
2.631 km
极远距离
1.603881E-6 低风险 0.39
CDM_260908-050006-490006-844921
CO3D3 (64900)
2026-09-08T
05:00:49+0000
2.602 km
极远距离
1.524437E-6 低风险 0.39